sat.trackr.live / text

‹ back to catalog

ETRSS-1

NORAD 44880 · 2019-093B

PAYLOAD ACTIVE UNKNOWN

§ Identity

Operator
Country
ETH
Launch date
2019-12-20
Launch site
TAISC
Launch vehicle
Mass (kg)
RCS (m²)

External: N2YO · Heavens-Above · Gunter

§ Orbital elements

Epoch: 2026-05-25T05:13:42.380832Z

Period
96.28 min
Inclination
97.7812°
Eccentricity
0.0012414
Mean motion
14.95710805 rev/d
Perigee alt
571.5 km
Apogee alt
588.8 km
Semi-major
6,958.3 km
B*
2.0266e-4
RAAN
229.6659°
Arg perigee
127.6583°
Mean anomaly
232.5766°
Rev number
34,862

§ Raw data

ETRSS-11 44880U 19093B   26145.21785163  .00002201  00000+0  20266-3 0  99902 44880  97.7812 229.6659 0012414 127.6583 232.5766 14.95710805348627

JSON: /api/v1/satellites/44880 · /tle

For live sub-satellite position, see the globe view (requires WebGL).

§ Visibility from observer

Set your observer location to see the next 7 days of passes ≥ 10°. The values pass through the URL so the page stays shareable.

No JS? Fill the form by hand. The geolocation button needs JavaScript.

§ Radio — SatNOGS DB

ModeDescriptionDownlinkUplink
FM S-band telemetry 2.264 GHz

1 transmitter · refreshed weekly from db.satnogs.org